Location: Bagnara
(41.0500°N, 14.7833°E)
Time: 07:53:54
(UTC+00:00)

Meteor 2-3 Rocket - Pass Details

Date: 02 November 2021
Orbit: 842 x 885 km, 81.2° (Epoch: 30 November)

Event Time Altitude Azimuth Distance (km) Brightness Sun altitude
Rises 19:26:32 0° 339° (NNW) 3,435 7.3 -40.0°
Reaches altitude 10° 19:29:12 10° 329° (NNW) 2,501 6.6 -40.5°
Enters shadow 19:31:23 21° 313° (NW) 1,864 5.9 -40.9°
